Location: Forst
(46.9333°N, 15.4333°E)
Time: 15:50:07
(UTC+00:00)

Cosmos 1821 Rocket - Pass Details

Date: 01 December 2020
Orbit: 946 x 1004 km, 82.9° (Epoch: 28 January)

Event Time Altitude Azimuth Distance (km) Brightness Sun altitude
Rises 17:29:12 0° 349° (N) 3,675 7.1 -22.8°
Reaches altitude 10° 17:31:42 10° 349° (NNW) 2,732 6.4 -23.2°
Maximum altitude 17:37:57 77° 264° (W) 1,015 4.1 -24.3°
Drops below altitude 10° 17:44:16 10° 180° (S) 2,752 6.4 -25.3°
Sets 17:46:47 0° 179° (S) 3,703 7.1 -25.8°
